Showing default

COSMOS 1694, 16142

Orbit data source: Space-Track

COSMOS 1694, 16142 is a payload satellite owned by GUKOS (CIS) in LEO that was launched on Wed, 09 Oct 1985 UTC via a TSIKLON-3 launch vehicle from the Plesetsk Missile And Space Complex (PKMTR). Payload-class satellites include a variety of spacecraft equipped with specific instruments for various scientific and technological missions. These include communications satellites like Starlink; space stations such as the ISS; scientific satellites like the Hubble; Earth observation satellites from companies like Planet Labs, Umbra, and HawkEye 360; GPS; miniature CubeSats for education and research; and military/defense satellites.

Loading next visibility...
Identifier
16142, 1985-094E
Orbit
LEO
Country
Flag of CISCIS
Related business
Manufacturer
NPO PM
Mission
Spacecraft
Bus & Motor
STRELA-3, Unknown motor
Mass
225 kg wet, 225 kg dry
Launch date (UTC)
1985-10-09 (40 years ago)
Launch vehicle
TSIKLON-3
Launch site
Plesetsk Missile And Space Complex (PKMTR)
Object type
Payload
Rocket body
Debris
Shape & HBR
Unknown
Radar Cross Section
Medium (>0.1 m² and <1 m²)

Expand to show TLE details & history
Last TLE update: 14 hours ago

TLE from 14 hours ago
0 COSMOS 1694
1 16142U 85094E   25298.29058183  .00000017  00000-0  32779-4 0  9992
2 16142  82.6107  51.9004 0010548 238.9277 149.1703 12.63683598846997
Epoch: 2025-10-25T06:58Z
TLE epoch observation values (Epoch: 2025-10-25T06:58:26.270Z)
Latitude
27.94421°
Longitude
-82.70708°
Altitude
1,418.13 km
Speed
7.151 km/s
True Right ascension
03h 43m 18s
True Declination
27° 48' 51"
Sunlit
Object was in full shadow at epoch
Visualization orbit readout
Latitude
Unknown
Longitude
Unknown
Altitude
Unknown
Speed
Unknown
Apparent Right ascension
Unknown
Apparent Declination
Unknown
Sunlit
N/A
Visualization observer readout
Local Sidereal Time
15:56:33
Azimuth
Unknown
Elevation
Unknown
Doppler factor
Unknown
Orbital elements
Apogee altitude
1,413.304 km
Perigee altitude
1,396.885 km
Semi-major axis
7,783.232 km
Eccentricity
0.00105
Inclination
82.6107°
RAAN
51.9004°
Arg. of periapsis
238.9277°
True anomaly
149.23217°
Mean anomaly
149.1703°
Eccentric anomaly
149.20124°
Mean motion
3.16085 °/min
Orbital period
113.89 mins
BSTAR
0.000032779
Loading maneuver chart data...
Computing Atmospheric mass density...
Loading historical data...
Loading historical data...
Loading historical data...
Loading historical data...
Loading historical data...
Loading historical data...
Loading historical data...

Documentation

Showing up to 5 results
|